,,Stat5,,Stat1,,Stat2,,Stat3,,Stat4,,Wind1,,Wind1,
time,status,PA1M_AVG,status,PR1M_SUM,status,RH1M_AVG,status,SR1M_AVG,status,TA1M_AVG,status,W1dAve1m,status,W1sAve1m,
2000-10-25, 00:00:00,VALID,917.971,VALID,0,VALID,99.5819,VALID,-0.0169808,VALID,18.0092,VALID,220,VALID,0.23112,
2000-10-25, 00:01:00,VALID,917.949,VALID,0,VALID,99.5577,VALID,-0.0339617,VALID,18.0099,VALID,196,VALID,0.568462,
2000-10-25, 00:02:00,VALID,917.93,VALID,0,VALID,99.531,VALID,0,VALID,17.97,VALID,159,VALID,0.666518,
2000-10-25, 00:03:00,VALID,917.906,VALID,0,VALID,99.5437,VALID,-0.0169808,VALID,17.9735,VALID,102,VALID,1.10814,
2000-10-25, 00:04:00,VALID,917.908,VALID,0,VALID,99.5463,VALID,0,VALID,17.9571,VALID,100,VALID,1.07639,
2000-10-25, 00:05:00,VALID,917.885,VALID,0,VALID,99.5005,VALID,0,VALID,17.8987,VALID,109,VALID,1.29276,
2000-10-25, 00:06:00,VALID,917.869,VALID,0,VALID,99.5158,VALID,0,VALID,17.896,VALID,114,VALID,0.831913,
2000-10-25, 00:07:00,VALID,917.856,VALID,0,VALID,99.5374,VALID,0,VALID,17.9091,VALID,80,VALID,0.668586,
2000-10-25, 00:08:00,VALID,917.856,VALID,0,VALID,99.5539,VALID,0,VALID,17.9119,VALID,68,VALID,0.0592448,
2000-10-25, 00:09:00,VALID,917.83,VALID,0,VALID,99.5539,VALID,0,VALID,17.9089,VALID,107,VALID,0.140625,
2000-10-25, 00:10:00,VALID,917.812,VALID,0,VALID,99.5476,VALID,0,VALID,17.8994,VALID,109,VALID,0.429071,
2000-10-25, 00:11:00,VALID,917.812,VALID,0,VALID,99.5476,VALID,0,VALID,17.8796,VALID,109,VALID,0.505425,
2000-10-25, 00:12:00,VALID,917.811,VALID,0,VALID,99.5425,VALID,0,VALID,17.8637,VALID,112,VALID,0.723606,
2000-10-25, 00:13:00,VALID,917.796,VALID,0,VALID,99.573,VALID,0,VALID,17.8766,VALID,131,VALID,0.783203,
2000-10-25, 00:14:00,VALID,917.782,VALID,0,VALID,99.62,VALID,0,VALID,17.9313,VALID,147,VALID,0.696921,
2000-10-25, 00:15:00,VALID,917.756,VALID,0,VALID,99.6277,VALID,0,VALID,17.9705,VALID,100,VALID,0.583059,
2000-10-25, 00:16:00,VALID,917.778,VALID,0,VALID,99.5972,VALID,0,VALID,17.9834,VALID,35,VALID,0.668527,
2000-10-25, 00:17:00,VALID,917.773,VALID,0,VALID,99.5895,VALID,0,VALID,18.0055,VALID,76,VALID,0.0946181,
2000-10-25, 00:18:00,VALID,917.733,VALID,0,VALID,99.5794,VALID,-0.0169808,VALID,18.0157,VALID,109,VALID,1.17339,
2000-10-25, 00:19:00,VALID,917.684,VALID,0,VALID,99.5577,VALID,0,VALID,18.0088,VALID,117,VALID,1.48177,
2000-10-25, 00:20:00,VALID,917.656,VALID,0,VALID,99.5514,VALID,0,VALID,18.0284,VALID,123,VALID,0.835321,
2000-10-25, 00:21:00,VALID,917.654,VALID,0,VALID,99.5425,VALID,-0.0169808,VALID,18.0346,VALID,125,VALID,0.857422,
2000-10-25, 00:22:00,VALID,917.617,VALID,0,VALID,99.5476,VALID,0,VALID,18.0574,VALID,110,VALID,1.23655,
2000-10-25, 00:23:00,VALID,917.584,VALID,0,VALID,99.5259,VALID,0,VALID,18.0798,VALID,96,VALID,1.11534,
2000-10-25, 00:24:00,VALID,917.56,VALID,0,VALID,99.5069,VALID,0,VALID,18.0639,VALID,98,VALID,1.25558,
2000-10-25, 00:25:00,VALID,917.564,VALID,0,VALID,99.5056,VALID,0,VALID,18.08,VALID,87,VALID,0.506123,
2000-10-25, 00:26:00,VALID,917.6,VALID,0,VALID,99.498,VALID,0,VALID,18.0964,VALID,339,VALID,0.499081,
2000-10-25, 00:27:00,VALID,917.602,VALID,0,VALID,99.4865,VALID,0,VALID,18.0865,VALID,298,VALID,0.50739,
2000-10-25, 00:28:00,VALID,917.602,VALID,0,VALID,99.4929,VALID,0,VALID,18.0796,VALID,219,VALID,0.78864,
2000-10-25, 00:29:00,VALID,917.581,VALID,0,VALID,99.4738,VALID,0,VALID,18.0863,VALID,193,VALID,1.09866,
2000-10-25, 00:30:00,VALID,917.538,VALID,0,VALID,99.3912,VALID,0,VALID,18.1087,VALID,129,VALID,0.733347,
2000-10-25, 00:31:00,VALID,917.563,VALID,0,VALID,99.3479,VALID,0.0169808,VALID,18.1702,VALID,97,VALID,0.760268,
2000-10-25, 00:32:00,VALID,917.587,VALID,0,VALID,99.2716,VALID,0,VALID,18.2025,VALID,124,VALID,0.554688,
2000-10-25, 00:33:00,VALID,917.577,VALID,0,VALID,99.2157,VALID,0,VALID,18.2122,VALID,96,VALID,0.644748,
2000-10-25, 00:34:00,VALID,917.622,VALID,0,VALID,99.1775,VALID,0,VALID,18.2055,VALID,93,VALID,1.28537,
2000-10-25, 00:35:00,VALID,917.622,VALID,0,VALID,99.1292,VALID,0,VALID,18.2025,VALID,73,VALID,1.61205,
2000-10-25, 00:36:00,VALID,917.611,VALID,0,VALID,99.0529,VALID,0,VALID,18.2353,VALID,67,VALID,0.647352,
2000-10-25, 00:37:00,VALID,917.635,VALID,0,VALID,99.0135,VALID,-0.0169808,VALID,18.2577,VALID,19,VALID,0.307943,
2000-10-25, 00:38:00,VALID,917.635,VALID,0,VALID,98.969,VALID,0.0169808,VALID,18.2611,VALID,4,VALID,0.0456414,
2000-10-25, 00:39:00,VALID,917.638,VALID,0,VALID,98.9436,VALID,0,VALID,18.2478,VALID,281,VALID,0,
2000-10-25, 00:40:00,VALID,917.633,VALID,0,VALID,98.9766,VALID,0.0169808,VALID,18.2611,VALID,273,VALID,0,
2000-10-25, 00:41:00,VALID,917.625,VALID,0,VALID,98.9766,VALID,0,VALID,18.2374,VALID,243,VALID,0,
2000-10-25, 00:42:00,VALID,917.621,VALID,0,VALID,98.9868,VALID,0,VALID,18.245,VALID,242,VALID,0,
2000-10-25, 00:43:00,VALID,917.601,VALID,0,VALID,98.9817,VALID,0,VALID,18.2286,VALID,242,VALID,0,
2000-10-25, 00:44:00,VALID,917.589,VALID,0,VALID,98.9664,VALID,0.0169808,VALID,18.1989,VALID,204,VALID,0,
2000-10-25, 00:45:00,VALID,917.555,VALID,0,VALID,98.9614,VALID,0,VALID,18.1763,VALID,177,VALID,0,
2000-10-25, 00:46:00,VALID,917.536,VALID,0,VALID,98.9474,VALID,0,VALID,18.1668,VALID,177,VALID,0,
2000-10-25, 00:47:00,VALID,917.534,VALID,0,VALID,98.9842,VALID,0,VALID,18.1802,VALID,175,VALID,0,
2000-10-25, 00:48:00,VALID,917.52,VALID,0,VALID,98.9957,VALID,0,VALID,18.1896,VALID,154,VALID,0,
2000-10-25, 00:49:00,VALID,917.518,VALID,0,VALID,98.9766,VALID,0,VALID,18.1866,VALID,152,VALID,0,
2000-10-25, 00:50:00,VALID,917.518,VALID,0,VALID,98.9436,VALID,0,VALID,18.1797,VALID,152,VALID,0,
2000-10-25, 00:51:00,VALID,917.528,VALID,0,VALID,98.9258,VALID,-0.0169808,VALID,18.1864,VALID,163,VALID,0,
2000-10-25, 00:52:00,VALID,917.525,VALID,0,VALID,98.9156,VALID,0,VALID,18.1896,VALID,168,VALID,0,
2000-10-25, 00:53:00,VALID,917.522,VALID,0,VALID,98.9232,VALID,0.0169808,VALID,18.1797,VALID,142,VALID,0.865748,
2000-10-25, 00:54:00,VALID,917.505,VALID,0,VALID,98.9397,VALID,0.0169808,VALID,18.1767,VALID,131,VALID,1.10982,
2000-10-25, 00:55:00,VALID,917.526,VALID,0,VALID,98.9652,VALID,0,VALID,18.179,VALID,129,VALID,1.04899,
2000-10-25, 00:56:00,VALID,917.507,VALID,0,VALID,98.9486,VALID,-0.0169808,VALID,18.1866,VALID,122,VALID,1.0671,
2000-10-25, 00:57:00,VALID,917.504,VALID,0,VALID,98.9207,VALID,-0.0169808,VALID,18.1536,VALID,119,VALID,1.10874,
2000-10-25, 00:58:00,VALID,917.5,VALID,0,VALID,98.9219,VALID,0,VALID,18.167,VALID,125,VALID,1.00441,
2000-10-25, 00:59:00,VALID,917.501,VALID,0,VALID,98.9194,VALID,0,VALID,18.1608,VALID,138,VALID,1.02098,
2000-10-25, 01:00:00,VALID,917.481,VALID,0,VALID,98.9041,VALID,0,VALID,18.1672,VALID,158,VALID,0.903166,
2000-10-25, 01:01:00,VALID,917.503,VALID,0,VALID,98.8685,VALID,-0.0169808,VALID,18.161,VALID,173,VALID,0.552232,
2000-10-25, 01:02:00,VALID,917.515,VALID,0,VALID,98.8634,VALID,-0.0169808,VALID,18.1546,VALID,167,VALID,0.646267,
2000-10-25, 01:03:00,VALID,917.508,VALID,0,VALID,98.913,VALID,0,VALID,18.1606,VALID,157,VALID,0.968533,
2000-10-25, 01:04:00,VALID,917.504,VALID,0,VALID,98.9168,VALID,-0.0169808,VALID,18.1899,VALID,153,VALID,1.19358,
2000-10-25, 01:05:00,VALID,917.493,VALID,0,VALID,98.8698,VALID,0,VALID,18.1896,VALID,168,VALID,1.12562,
2000-10-25, 01:06:00,VALID,917.491,VALID,0,VALID,98.8533,VALID,0,VALID,18.1896,VALID,180,VALID,1.11719,
2000-10-25, 01:07:00,VALID,917.481,VALID,0,VALID,98.8545,VALID,-0.0509425,VALID,18.1995,VALID,198,VALID,0.435547,
2000-10-25, 01:08:00,VALID,917.499,VALID,0,VALID,98.8571,VALID,-0.0169808,VALID,18.2129,VALID,180,VALID,0.553043,
2000-10-25, 01:09:00,VALID,917.473,VALID,0,VALID,98.8749,VALID,-0.0169808,VALID,18.206,VALID,175,VALID,0.683705,
2000-10-25, 01:10:00,VALID,917.461,VALID,0,VALID,98.8774,VALID,-0.0339617,VALID,18.2127,VALID,173,VALID,0.768581,
2000-10-25, 01:11:00,VALID,917.453,VALID,0,VALID,98.894,VALID,-0.0339617,VALID,18.1961,VALID,163,VALID,0.723116,
2000-10-25, 01:12:00,VALID,917.437,VALID,0,VALID,98.9143,VALID,0,VALID,18.1901,VALID,162,VALID,0.995777,
2000-10-25, 01:13:00,VALID,917.411,VALID,0,VALID,98.9385,VALID,-0.0169808,VALID,18.2125,VALID,167,VALID,1.06991,
2000-10-25, 01:14:00,VALID,917.39,VALID,0,VALID,98.8329,VALID,-0.0339617,VALID,18.2125,VALID,168,VALID,0.973437,
2000-10-25, 01:15:00,VALID,917.36,VALID,0,VALID,98.7503,VALID,-0.0339617,VALID,18.2288,VALID,156,VALID,0.907689,
2000-10-25, 01:16:00,VALID,917.344,VALID,0,VALID,98.6867,VALID,-0.0169808,VALID,18.2351,VALID,149,VALID,0.780804,
2000-10-25, 01:17:00,VALID,917.334,VALID,0,VALID,98.6256,VALID,-0.0169808,VALID,18.2159,VALID,150,VALID,0.47309,
2000-10-25, 01:18:00,VALID,917.344,VALID,0,VALID,98.6269,VALID,0,VALID,18.2092,VALID,153,VALID,0.130208,
2000-10-25, 01:19:00,VALID,917.346,VALID,0,VALID,98.6727,VALID,0,VALID,18.2152,VALID,153,VALID,0,
2000-10-25, 01:20:00,VALID,917.33,VALID,0,VALID,98.6905,VALID,0,VALID,18.1989,VALID,162,VALID,0.0435855,
2000-10-25, 01:21:00,VALID,917.305,VALID,0,VALID,98.7058,VALID,0,VALID,18.1859,VALID,164,VALID,0,
2000-10-25, 01:22:00,VALID,917.3,VALID,0,VALID,98.7465,VALID,0.0169808,VALID,18.1763,VALID,164,VALID,0,
2000-10-25, 01:23:00,VALID,917.278,VALID,0,VALID,98.7871,VALID,-0.0169808,VALID,18.1668,VALID,164,VALID,0,
2000-10-25, 01:24:00,VALID,917.271,VALID,0,VALID,98.7859,VALID,-0.0169808,VALID,18.1474,VALID,183,VALID,0.266741,
2000-10-25, 01:25:00,VALID,917.247,VALID,0,VALID,98.8329,VALID,0,VALID,18.128,VALID,207,VALID,0.452492,
2000-10-25, 01:26:00,VALID,917.224,VALID,0,VALID,98.8863,VALID,0,VALID,18.1343,VALID,214,VALID,0.672105,
2000-10-25, 01:27:00,VALID,917.164,VALID,0,VALID,98.9105,VALID,0,VALID,18.1315,VALID,201,VALID,0.714527,
2000-10-25, 01:28:00,VALID,917.103,VALID,0,VALID,98.9461,VALID,0.0169808,VALID,18.141,VALID,194,VALID,0.871595,
2000-10-25, 01:29:00,VALID,917.085,VALID,0,VALID,98.9321,VALID,0,VALID,18.1315,VALID,187,VALID,0.770089,
2000-10-25, 01:30:00,VALID,917.065,VALID,0,VALID,98.9168,VALID,-0.0339617,VALID,18.1153,VALID,168,VALID,0.668791,
2000-10-25, 01:31:00,VALID,917.034,VALID,0,VALID,98.9499,VALID,0,VALID,18.119,VALID,173,VALID,0.914286,
2000-10-25, 01:32:00,VALID,917.025,VALID,0,VALID,98.9588,VALID,-0.118866,VALID,18.1169,VALID,179,VALID,0.539714,
2000-10-25, 01:33:00,VALID,917.039,VALID,0,VALID,98.983,VALID,-0.101885,VALID,18.1167,VALID,180,VALID,0.178168,
2000-10-25, 01:34:00,VALID,917.066,VALID,0,VALID,99.0084,VALID,-0.118866,VALID,18.1301,VALID,180,VALID,0.00108507,
2000-10-25, 01:35:00,VALID,917.055,VALID,0,VALID,99.0046,VALID,-0.135847,VALID,18.1331,VALID,226,VALID,0.405428,
2000-10-25, 01:36:00,VALID,917.041,VALID,0,VALID,99.0135,VALID,-0.118866,VALID,18.1303,VALID,242,VALID,0.433594,
2000-10-25, 01:37:00,VALID,917.022,VALID,0,VALID,99.0542,VALID,-0.118866,VALID,18.1398,VALID,153,VALID,0.845703,
2000-10-25, 01:38:00,VALID,917.008,VALID,0,VALID,99.0249,VALID,-0.118866,VALID,18.1324,VALID,149,VALID,0.873766,
2000-10-25, 01:39:00,VALID,917.005,VALID,0,VALID,98.913,VALID,-0.135847,VALID,18.1467,VALID,166,VALID,0.320982,
2000-10-25, 01:40:00,VALID,917.011,VALID,0,VALID,98.8673,VALID,-0.152827,VALID,18.1594,VALID,154,VALID,0.0532095,
2000-10-25, 01:41:00,VALID,917.001,VALID,0,VALID,98.8177,VALID,-0.152827,VALID,18.1688,VALID,110,VALID,0.0988051,
2000-10-25, 01:42:00,VALID,916.981,VALID,0,VALID,98.8037,VALID,-0.101885,VALID,18.1525,VALID,110,VALID,0.00105574,
2000-10-25, 01:43:00,VALID,916.971,VALID,0,VALID,98.7922,VALID,-0.101885,VALID,18.146,VALID,110,VALID,0.0284455,
2000-10-25, 01:44:00,VALID,916.99,VALID,0,VALID,98.8088,VALID,-0.101885,VALID,18.1266,VALID,99,VALID,1.08929,
2000-10-25, 01:45:00,VALID,916.975,VALID,0,VALID,98.7732,VALID,-0.118866,VALID,18.075,VALID,101,VALID,1.92496,
2000-10-25, 01:46:00,VALID,916.945,VALID,0,VALID,98.7592,VALID,-0.101885,VALID,18.1042,VALID,101,VALID,1.65335,
2000-10-25, 01:47:00,VALID,916.92,VALID,0,VALID,98.6867,VALID,-0.0169808,VALID,18.161,VALID,94,VALID,1.20595,
2000-10-25, 01:48:00,VALID,916.906,VALID,0,VALID,98.5811,VALID,-0.0339617,VALID,18.1737,VALID,90,VALID,0.70638,
2000-10-25, 01:49:00,VALID,916.907,VALID,0,VALID,98.4909,VALID,-0.0339617,VALID,18.1737,VALID,75,VALID,0.391276,
2000-10-25, 01:50:00,VALID,916.909,VALID,0,VALID,98.3879,VALID,0,VALID,18.1541,VALID,80,VALID,0.986842,
2000-10-25, 01:51:00,VALID,916.891,VALID,0,VALID,98.3383,VALID,0,VALID,18.1382,VALID,86,VALID,1.01389,
2000-10-25, 01:52:00,VALID,916.883,VALID,0,VALID,98.3383,VALID,-0.0169808,VALID,18.122,VALID,100,VALID,1.0918,
2000-10-25, 01:53:00,VALID,916.869,VALID,0,VALID,98.3548,VALID,-0.0339617,VALID,18.1033,VALID,107,VALID,1.32915,
2000-10-25, 01:54:00,VALID,916.852,VALID,0,VALID,98.4273,VALID,-0.0339617,VALID,18.0897,VALID,69,VALID,0.498214,
2000-10-25, 01:55:00,VALID,916.878,VALID,0,VALID,98.4947,VALID,-0.0169808,VALID,18.0736,VALID,336,VALID,0.384713,
2000-10-25, 01:56:00,VALID,916.878,VALID,0,VALID,98.5621,VALID,-0.0509425,VALID,18.0736,VALID,19,VALID,0.318474,
2000-10-25, 01:57:00,VALID,916.858,VALID,0,VALID,98.6333,VALID,-0.0339617,VALID,18.0736,VALID,148,VALID,0.784417,
2000-10-25, 01:58:00,VALID,916.833,VALID,0,VALID,98.6511,VALID,-0.0169808,VALID,18.0803,VALID,121,VALID,1.26322,
2000-10-25, 01:59:00,VALID,916.844,VALID,0,VALID,98.6371,VALID,-0.0169808,VALID,18.1029,VALID,129,VALID,1.12879,
2000-10-25, 02:00:00,VALID,916.83,VALID,0,VALID,98.5392,VALID,-0.0339617,VALID,18.1287,VALID,105,VALID,0.960732,
2000-10-25, 02:01:00,VALID,916.808,VALID,0,VALID,98.4158,VALID,-0.0339617,VALID,18.0994,VALID,121,VALID,0.851563,
2000-10-25, 02:02:00,VALID,916.812,VALID,0,VALID,98.3421,VALID,0,VALID,18.0805,VALID,120,VALID,1.27062,
2000-10-25, 02:03:00,VALID,916.795,VALID,0,VALID,98.3344,VALID,-0.0339617,VALID,18.0383,VALID,119,VALID,1.04883,
2000-10-25, 02:04:00,VALID,916.791,VALID,0,VALID,98.4464,VALID,-0.0509425,VALID,18.0445,VALID,111,VALID,0.460503,
2000-10-25, 02:05:00,VALID,916.805,VALID,0,VALID,98.4947,VALID,-0.0679233,VALID,18.0611,VALID,98,VALID,0.179276,
2000-10-25, 02:06:00,VALID,916.81,VALID,0,VALID,98.5621,VALID,-0.0849042,VALID,18.0609,VALID,101,VALID,0.326823,
2000-10-25, 02:07:00,VALID,916.799,VALID,0,VALID,98.6307,VALID,-0.0339617,VALID,18.0798,VALID,138,VALID,0.603082,
2000-10-25, 02:08:00,VALID,916.779,VALID,0,VALID,98.6028,VALID,-0.0169808,VALID,18.0865,VALID,145,VALID,1.08388,
2000-10-25, 02:09:00,VALID,916.743,VALID,0,VALID,98.5163,VALID,-0.0509425,VALID,18.0805,VALID,149,VALID,1.05513,
2000-10-25, 02:10:00,VALID,916.754,VALID,0,VALID,98.4438,VALID,-0.0339617,VALID,18.0706,VALID,150,VALID,1.02407,
2000-10-25, 02:11:00,VALID,916.764,VALID,0,VALID,98.4133,VALID,-0.0169808,VALID,18.0508,VALID,131,VALID,0.858226,
2000-10-25, 02:12:00,VALID,916.774,VALID,0,VALID,98.4489,VALID,-0.0169808,VALID,18.0284,VALID,128,VALID,0.694679,
2000-10-25, 02:13:00,VALID,916.78,VALID,0,VALID,98.4514,VALID,-0.0339617,VALID,18.0155,VALID,121,VALID,0.891827,
2000-10-25, 02:14:00,VALID,916.755,VALID,0,VALID,98.5519,VALID,-0.0679233,VALID,18.0028,VALID,147,VALID,1.77054,
2000-10-25, 02:15:00,VALID,916.747,VALID,0,VALID,98.5786,VALID,-0.0509425,VALID,18.0346,VALID,164,VALID,1.17537,
2000-10-25, 02:16:00,VALID,916.745,VALID,0,VALID,98.4781,VALID,-0.0509425,VALID,18.0381,VALID,157,VALID,0.711384,
2000-10-25, 02:17:00,VALID,916.764,VALID,0,VALID,98.4794,VALID,-0.0169808,VALID,18.0381,VALID,148,VALID,0.323351,
2000-10-25, 02:18:00,VALID,916.775,VALID,0,VALID,98.4832,VALID,-0.0339617,VALID,18.0348,VALID,149,VALID,0,
2000-10-25, 02:19:00,VALID,916.778,VALID,0,VALID,98.5087,VALID,-0.0339617,VALID,18.0445,VALID,149,VALID,0,
2000-10-25, 02:20:00,VALID,916.778,VALID,0,VALID,98.5354,VALID,-0.0509425,VALID,18.0417,VALID,180,VALID,0.554482,
2000-10-25, 02:21:00,VALID,916.76,VALID,0,VALID,98.4998,VALID,-0.0339617,VALID,18.0187,VALID,168,VALID,0.989366,
2000-10-25, 02:22:00,VALID,916.731,VALID,0,VALID,98.5303,VALID,-0.0509425,VALID,18.0159,VALID,171,VALID,1.05382,
2000-10-25, 02:23:00,VALID,916.743,VALID,0,VALID,98.5392,VALID,-0.0509425,VALID,18.009,VALID,152,VALID,0.866776,
2000-10-25, 02:24:00,VALID,916.74,VALID,0,VALID,98.5621,VALID,-0.0169808,VALID,17.9894,VALID,169,VALID,0.745536,
2000-10-25, 02:25:00,VALID,916.766,VALID,0,VALID,98.5748,VALID,-0.0169808,VALID,17.9926,VALID,180,VALID,0.706926,
2000-10-25, 02:26:00,VALID,916.76,VALID,0,VALID,98.5722,VALID,-0.0169808,VALID,17.9961,VALID,179,VALID,0.642923,
2000-10-25, 02:27:00,VALID,916.773,VALID,0,VALID,98.6053,VALID,-0.0339617,VALID,17.9894,VALID,173,VALID,0.815456,
2000-10-25, 02:28:00,VALID,916.769,VALID,0,VALID,98.6104,VALID,-0.0509425,VALID,17.9926,VALID,162,VALID,0.839944,
2000-10-25, 02:29:00,VALID,916.763,VALID,0,VALID,98.6244,VALID,-0.0679233,VALID,18.0023,VALID,163,VALID,0.882589,
2000-10-25, 02:30:00,VALID,916.756,VALID,0,VALID,98.5862,VALID,-0.0339617,VALID,18.0383,VALID,183,VALID,0.578947,
2000-10-25, 02:31:00,VALID,916.757,VALID,0,VALID,98.5125,VALID,-0.0509425,VALID,18.0641,VALID,203,VALID,0.772768,
2000-10-25, 02:32:00,VALID,916.759,VALID,0,VALID,98.44,VALID,0,VALID,18.0602,VALID,214,VALID,0.637587,
2000-10-25, 02:33:00,VALID,916.757,VALID,0,VALID,98.4031,VALID,0,VALID,18.0934,VALID,214,VALID,0.0800781,
2000-10-25, 02:34:00,VALID,916.759,VALID,0,VALID,98.3548,VALID,-0.0509425,VALID,18.0674,VALID,186,VALID,0.826389,
2000-10-25, 02:35:00,VALID,916.739,VALID,0,VALID,98.3662,VALID,-0.0509425,VALID,18.0639,VALID,186,VALID,0.907278,
2000-10-25, 02:36:00,VALID,916.71,VALID,0,VALID,98.365,VALID,-0.0339617,VALID,18.0415,VALID,158,VALID,0.732205,
2000-10-25, 02:37:00,VALID,916.702,VALID,0,VALID,98.4629,VALID,0,VALID,18.0318,VALID,195,VALID,0.970536,
2000-10-25, 02:38:00,VALID,916.672,VALID,0,VALID,98.5443,VALID,0,VALID,18.0351,VALID,199,VALID,0.765831,
2000-10-25, 02:39:00,VALID,916.668,VALID,0,VALID,98.6358,VALID,-0.0509425,VALID,18.0445,VALID,208,VALID,0.863616,
2000-10-25, 02:40:00,VALID,916.661,VALID,0,VALID,98.6702,VALID,-0.0169808,VALID,18.0671,VALID,206,VALID,1.19573,
2000-10-25, 02:41:00,VALID,916.652,VALID,0,VALID,98.6714,VALID,-0.0849042,VALID,18.0971,VALID,199,VALID,1.04504,
2000-10-25, 02:42:00,VALID,916.635,VALID,0,VALID,98.6829,VALID,0,VALID,18.08,VALID,186,VALID,1.45777,
2000-10-25, 02:43:00,VALID,916.604,VALID,0,VALID,98.6524,VALID,0,VALID,18.0997,VALID,182,VALID,1.43169,
2000-10-25, 02:44:00,VALID,916.585,VALID,0,VALID,98.5544,VALID,-0.0339617,VALID,18.1091,VALID,189,VALID,0.845089,
2000-10-25, 02:45:00,VALID,916.584,VALID,0,VALID,98.4896,VALID,-0.0509425,VALID,18.1223,VALID,192,VALID,0.711349,
2000-10-25, 02:46:00,VALID,916.577,VALID,0,VALID,98.4502,VALID,-0.0169808,VALID,18.122,VALID,182,VALID,0.416741,
2000-10-25, 02:47:00,VALID,916.584,VALID,0,VALID,98.4527,VALID,-0.0339617,VALID,18.1218,VALID,194,VALID,0.29145,
2000-10-25, 02:48:00,VALID,916.587,VALID,0,VALID,98.4336,VALID,0,VALID,18.1186,VALID,173,VALID,0.61263,
2000-10-25, 02:49:00,VALID,916.572,VALID,0,VALID,98.3968,VALID,-0.0169808,VALID,18.1089,VALID,180,VALID,1.13455,
2000-10-25, 02:50:00,VALID,916.558,VALID,0,VALID,98.2251,VALID,-0.0339617,VALID,18.1446,VALID,175,VALID,0.817434,
2000-10-25, 02:51:00,VALID,916.549,VALID,0,VALID,98.0229,VALID,-0.0339617,VALID,18.1806,VALID,147,VALID,1.05773,
2000-10-25, 02:52:00,VALID,916.544,VALID,0,VALID,97.7762,VALID,-0.0849042,VALID,18.1834,VALID,134,VALID,1.21853,
2000-10-25, 02:53:00,VALID,916.532,VALID,0,VALID,97.6516,VALID,-0.0169808,VALID,18.2,VALID,97,VALID,0.975946,
2000-10-25, 02:54:00,VALID,916.531,VALID,0,VALID,97.555,VALID,-0.0849042,VALID,18.1742,VALID,111,VALID,0.851563,
2000-10-25, 02:55:00,VALID,916.526,VALID,0,VALID,97.6122,VALID,-0.0849042,VALID,18.135,VALID,111,VALID,1.03463,
2000-10-25, 02:56:00,VALID,916.517,VALID,0,VALID,97.6605,VALID,-0.0339617,VALID,18.1684,VALID,114,VALID,0.918199,
2000-10-25, 02:57:00,VALID,916.514,VALID,0,VALID,97.5995,VALID,-0.0679233,VALID,18.1772,VALID,164,VALID,0.580236,
2000-10-25, 02:58:00,VALID,916.487,VALID,0,VALID,97.5206,VALID,-0.0679233,VALID,18.1935,VALID,167,VALID,0.211538,
2000-10-25, 02:59:00,VALID,916.494,VALID,0,VALID,97.5206,VALID,-0.0679233,VALID,18.1862,VALID,166,VALID,0.201116,
2000-10-25, 03:00:00,VALID,916.496,VALID,0,VALID,97.5639,VALID,-0.0509425,VALID,18.1899,VALID,146,VALID,0.429071,
2000-10-25, 03:01:00,VALID,916.494,VALID,0,VALID,97.5715,VALID,-0.0339617,VALID,18.1737,VALID,146,VALID,0.684375,
2000-10-25, 03:02:00,VALID,916.495,VALID,0,VALID,97.6084,VALID,-0.0169808,VALID,18.1742,VALID,159,VALID,0.736762,
2000-10-25, 03:03:00,VALID,916.501,VALID,0,VALID,97.5855,VALID,-0.0169808,VALID,18.1576,VALID,178,VALID,0.599392,
2000-10-25, 03:04:00,VALID,916.47,VALID,0,VALID,97.5359,VALID,-0.0169808,VALID,18.1675,VALID,205,VALID,0.878689,
2000-10-25, 03:05:00,VALID,916.48,VALID,0,VALID,97.541,VALID,-0.0509425,VALID,18.1642,VALID,219,VALID,0.964227,
2000-10-25, 03:06:00,VALID,916.485,VALID,0,VALID,97.5969,VALID,-0.0679233,VALID,18.158,VALID,204,VALID,0.6773,
2000-10-25, 03:07:00,VALID,916.486,VALID,0,VALID,97.6592,VALID,-0.0509425,VALID,18.1453,VALID,206,VALID,0.851563,
2000-10-25, 03:08:00,VALID,916.485,VALID,0,VALID,97.7368,VALID,-0.0509425,VALID,18.1356,VALID,189,VALID,0.789268,
2000-10-25, 03:09:00,VALID,916.472,VALID,0,VALID,97.8207,VALID,-0.0509425,VALID,18.132,VALID,187,VALID,0.95558,
2000-10-25, 03:10:00,VALID,916.482,VALID,0,VALID,97.864,VALID,-0.0679233,VALID,18.1319,VALID,192,VALID,0.991343,
2000-10-25, 03:11:00,VALID,916.492,VALID,0,VALID,97.85,VALID,0,VALID,18.1287,VALID,189,VALID,0.559283,
2000-10-25, 03:12:00,VALID,916.492,VALID,0,VALID,97.8919,VALID,-0.0509425,VALID,18.1287,VALID,189,VALID,0.664907,
2000-10-25, 03:13:00,VALID,916.492,VALID,0,VALID,97.9733,VALID,-0.0509425,VALID,18.1153,VALID,183,VALID,0.876002,
2000-10-25, 03:14:00,VALID,916.486,VALID,0,VALID,98.0077,VALID,-0.0169808,VALID,18.1287,VALID,167,VALID,1.08304,
2000-10-25, 03:15:00,VALID,916.472,VALID,0,VALID,98.0356,VALID,-0.0679233,VALID,18.1384,VALID,183,VALID,1.16632,
2000-10-25, 03:16:00,VALID,916.451,VALID,0,VALID,97.9364,VALID,-0.0509425,VALID,18.1511,VALID,175,VALID,0.835938,
2000-10-25, 03:17:00,VALID,916.432,VALID,0,VALID,97.8614,VALID,-0.0509425,VALID,18.1709,VALID,173,VALID,1.09809,
2000-10-25, 03:18:00,VALID,916.421,VALID,0,VALID,97.8156,VALID,-0.0509425,VALID,18.1809,VALID,177,VALID,0.829427,
2000-10-25, 03:19:00,VALID,916.417,VALID,0,VALID,97.7838,VALID,-0.0339617,VALID,18.1767,VALID,179,VALID,0.5625,
2000-10-25, 03:20:00,VALID,916.418,VALID,0,VALID,97.7699,VALID,-0.0169808,VALID,18.167,VALID,183,VALID,0.540707,
2000-10-25, 03:21:00,VALID,916.424,VALID,0,VALID,97.8309,VALID,-0.0339617,VALID,18.1546,VALID,189,VALID,0.535373,
2000-10-25, 03:22:00,VALID,916.435,VALID,0,VALID,97.8729,VALID,0,VALID,18.1543,VALID,182,VALID,0.581814,
2000-10-25, 03:23:00,VALID,916.446,VALID,0,VALID,97.9008,VALID,0,VALID,18.1474,VALID,198,VALID,0.739104,
2000-10-25, 03:24:00,VALID,916.471,VALID,0,VALID,97.9059,VALID,-0.0169808,VALID,18.1509,VALID,204,VALID,0.940625,
2000-10-25, 03:25:01,VALID,916.477,VALID,0,VALID,97.8411,VALID,0,VALID,18.1869,VALID,209,VALID,0.915329,
2000-10-25, 03:26:00,VALID,916.485,VALID,0,VALID,97.7482,VALID,-0.0169808,VALID,18.1933,VALID,206,VALID,0.867877,
2000-10-25, 03:27:00,VALID,916.485,VALID,0,VALID,97.7813,VALID,0,VALID,18.1869,VALID,214,VALID,0.929688,
2000-10-25, 03:28:00,VALID,916.497,VALID,0,VALID,97.8118,VALID,-0.0169808,VALID,18.1866,VALID,201,VALID,0.836138,
2000-10-25, 03:29:00,VALID,916.499,VALID,0,VALID,97.8245,VALID,-0.0339617,VALID,18.1732,VALID,199,VALID,0.922991,
2000-10-25, 03:30:01,VALID,916.506,VALID,0,VALID,97.8347,VALID,0,VALID,18.167,VALID,192,VALID,0.923109,
2000-10-25, 03:31:00,VALID,916.498,VALID,0,VALID,97.8665,VALID,-0.0339617,VALID,18.1511,VALID,200,VALID,0.740848,
2000-10-25, 03:32:00,VALID,916.501,VALID,0,VALID,97.9619,VALID,-0.0169808,VALID,18.1345,VALID,185,VALID,0.775825,
2000-10-25, 03:33:00,VALID,916.503,VALID,0,VALID,98.0471,VALID,0,VALID,18.135,VALID,176,VALID,0.66645,
2000-10-25, 03:34:00,VALID,916.492,VALID,0,VALID,98.0674,VALID,-0.0169808,VALID,18.1218,VALID,165,VALID,0.911241,